Retour au catalogue

STARLINK-34058

ActifCommunicationsVLEO
NORAD 63818·PAYLOAD·🇺🇸 United States

Lancé May 4, 2025 depuis Cape Canaveral Space Force Station

Loading…

Prochains Passages (prochaines 24 heures)

TLE

FraisSource: CelesTrak SupGP

Époque: Sep 14, 2026, 21:15 UTC

1 63818C 25092Q   26257.88590278 -.00005171  00000+0 -18724-3 0  2570
2 63818  42.9996 183.7249 0001471 263.3305  98.2600 15.27589667    18

Suivez STARLINK-34058 en temps réel avec AllMySat

Download on the App Store